Visibility
15.0 15.0 15.0 15.0 15.0 15.0 15.0 15.0 15.0 15.0 15.0 15.0 15.0 15.0 15.0 15.0 15.0 15.0 15.0 15.0 15.0 15.0 15.0 15.0 15.0 15.0 15.0 15.0 15.0 15.0 15.0 15.0 15.0 15.0 15.0 15.0 15.0 15.0 15.0 15.0 15.0 15.0 15.0 15.0
15.0 15.0 15.0 15.0 15.0 15.0 15.0 15.0 15.0 15.0 15.0 15.0 15.0 15.0 15.0 15.0 15.0 15.0 15.0 15.0 15.0 15.0 15.0 15.0 15.0 15.0 15.0 15.0 15.0 15.0 15.0 15.0 15.0 15.0 15.0 15.0 15.0 15.0 15.0 15.0 15.0 15.0 15.0 15.0
15.0 15.0 15.0 15.0 15.0 15.0 15.0 15.0 15.0 15.0 15.0 15.0 15.0 15.0 15.0 15.0 15.0 15.0 15.0 15.0 15.0 15.0 15.0 15.0 15.0 15.0 15.0 15.0 15.0 15.0 15.0 15.0 15.0 15.0 15.0 15.0 15.0 15.0 15.0 15.0 15.0 15.0 15.0 15.0
15.0 15.0 15.0 15.0 15.0 15.0 15.0 15.0 15.0 15.0 15.0 15.0 15.0 15.0 15.0 15.0 15.0 15.0 15.0 15.0 15.0 15.0 15.0 15.0 15.0 15.0 15.0 15.0 15.0 15.0 15.0 15.0 15.0 15.0 15.0 15.0 15.0 15.0 15.0 15.0 15.0 15.0 15.0 15.0
15.0 15.0 15.0 15.0 15.0 15.0 15.0 15.0 15.0 15.0 15.0 15.0 15.0 15.0 15.0 15.0 15.0 15.0 15.0 15.0 15.0 15.0 15.0 15.0 15.0 15.0 15.0 15.0 15.0 15.0 15.0 15.0 15.0 15.0 15.0 15.0 15.0 15.0 15.0 15.0 15.0 15.0 15.0 15.0
15.0 15.0 15.0 15.0 15.0 15.0 15.0 15.0 15.0 15.0 15.0 15.0 15.0 15.0 15.0 15.0 15.0 15.0 15.0 15.0 15.0 15.0 15.0 15.0 15.0 15.0 15.0 15.0 15.0 15.0 15.0 15.0 15.0 15.0 15.0 15.0 15.0 15.0 15.0 15.0 15.0 15.0 15.0 15.0
15.0 0.2 8.3 15.0 15.0 15.0 15.0 15.0 15.0 15.0 15.0 15.0 15.0 15.0 15.0 15.0 15.0 15.0 15.0 15.0 15.0 15.0 15.0 5.9 15.0 15.0 15.0 14.1 4.9 11.5 15.0 15.0 15.0 15.0 15.0 15.0 15.0 15.0 15.0 15.0 15.0 15.0 15.0 15.0
12.1 0.2 0.1 14.6 15.0 15.0 5.9 10.9 15.0 12.4 7.1 10.1 15.0 15.0 15.0 15.0 15.0 15.0 15.0 15.0 15.0 15.0 15.0 15.0 15.0 15.0 15.0 7.5 5.6 6.0 14.7 6.9 5.6 9.2 11.9 13.7 15.0 10.2 15.0 15.0 15.0 15.0 15.0 15.0
15.0 14.6 0.2 1.1 0.9 0.5 3.1 10.3 2.9 8.9 2.6 6.5 15.0 10.3 15.0 15.0 15.0 15.0 15.0 15.0 15.0 15.0 15.0 15.0 15.0 15.0 15.0 3.8 7.5 7.2 5.7 4.9 4.9 5.6 15.0 15.0 13.2 5.9 6.9 15.0 15.0 15.0 15.0 15.0
15.0 3.1 1.0 0.5 2.9 1.2 0.7 0.6 0.5 0.7 0.6 1.5 0.9 1.2 2.0 9.9 9.9 14.8 15.0 15.0 15.0 15.0 15.0 15.0 15.0 14.3 9.9 10.5 11.1 15.0 4.3 3.3 2.6 3.3 1.7 3.1 8.0 10.0 6.1 6.2 5.1 15.0 15.0 15.0
0.3 0.2 0.3 0.4 0.3 0.3 0.4 0.3 0.5 0.9 0.4 1.4 4.1 12.0 4.8 7.2 3.6 6.3 11.6 12.5 15.0 15.0 15.0 15.0 15.0 15.0 15.0 15.0 15.0 12.7 4.2 4.2 3.9 3.8 3.0 2.2 3.1 3.9 1.6 6.4 12.3 5.0 15.0 15.0
0.1 0.3 0.2 0.3 0.2 0.2 0.2 0.2 0.2 0.3 1.2 5.4 3.7 2.6 14.3 9.8 15.0 6.3 2.7 15.0 9.0 13.4 4.5 4.0 6.5 4.2 5.0 14.8 12.4 7.1 4.1 2.9 3.3 6.7 4.2 2.6 5.3 1.8 15.0 15.0 15.0 15.0 15.0 15.0
0.1 0.1 0.1 0.1 0.2 0.1 0.1 0.1 0.1 0.1 0.1 0.2 10.9 9.0 9.3 5.8 12.8 1.4 3.9 3.9 3.3 4.1 4.2 4.1 4.1 7.6 4.1 15.0 12.2 4.1 3.9 4.1 5.1 4.7 3.3 4.0 7.8 11.1 2.6 2.1 15.0 15.0 15.0 15.0
0.1 0.1 0.1 0.1 0.1 0.1 0.1 0.1 0.1 0.1 0.1 0.2 8.1 15.0 15.0 13.6 15.0 8.3 4.7 2.6 2.8 3.5 3.7 4.0 6.7 4.2 4.1 15.0 15.0 15.0 11.9 13.3 4.5 3.7 3.9 3.8 3.5 2.1 4.3 6.7 3.6 4.2 15.0 15.0
0.6 0.3 0.1 0.1 0.1 0.1 0.1 0.1 0.1 0.1 0.1 0.7 15.0 15.0 15.0 12.9 12.5 4.2 15.0 13.5 3.0 2.4 2.1 2.8 2.8 3.9 4.9 4.8 7.6 0.7 1.0 0.4 1.2 2.2 1.3 0.6 1.2 5.9 5.9 7.8 6.3 10.3 15.0 15.0
0.2 0.3 0.2 0.1 0.1 0.1 0.1 0.1 0.4 1.4 10.8 13.7 13.0 15.0 13.4 13.5 13.0 15.0 15.0 14.6 3.0 1.9 2.7 3.3 1.3 1.4 1.0 0.6 0.5 0.4 2.0 3.3 10.1 13.4 2.6 13.2 15.0 15.0 15.0 15.0 15.0 15.0 15.0 15.0
0.4 0.3 0.3 0.2 0.2 0.6 0.4 0.5 0.5 9.8 15.0 15.0 15.0 15.0 15.0 15.0 15.0 14.9 4.2 15.0 6.7 2.8 2.2 1.4 2.3 4.6 3.0 1.6 0.6 0.7 0.3 0.3 3.4 15.0 15.0 15.0 15.0 15.0 15.0 15.0 15.0 15.0 15.0 15.0
15.0 15.0 15.0 9.1 5.9 4.5 8.2 6.8 8.5 15.0 15.0 15.0 15.0 15.0 15.0 14.7 4.5 5.5 11.9 15.0 15.0 15.0 12.2 4.4 4.9 2.9 1.2 0.9 0.6 0.7 0.6 1.6 1.0 0.9 1.0 13.3 15.0 15.0 15.0 15.0 12.9 15.0 15.0 15.0
15.0 15.0 15.0 15.0 15.0 15.0 12.4 15.0 15.0 15.0 15.0 15.0 13.9 8.8 15.0 15.0 12.3 15.0 4.8 6.0 11.5 4.4 15.0 7.1 4.0 0.7 4.2 1.5 0.5 0.8 1.2 3.4 10.7 15.0 15.0 15.0 15.0 15.0 10.5 15.0 15.0 15.0 15.0 15.0
15.0 15.0 15.0 15.0 15.0 15.0 15.0 15.0 15.0 15.0 15.0 15.0 15.0 4.2 12.4 15.0 15.0 12.8 9.8 3.2 15.0 8.8 2.8 13.3 2.4 2.5 5.7 2.4 0.4 0.6 15.0 15.0 15.0 15.0 15.0 15.0 15.0 15.0 15.0 14.6 15.0 15.0 15.0 15.0
15.0 15.0 15.0 15.0 15.0 15.0 15.0 15.0 15.0 15.0 15.0 15.0 15.0 15.0 15.0 15.0 15.0 1.9 2.2 4.1 15.0 14.4 9.1 9.0 13.4 15.0 2.8 2.1 2.4 1.6 0.4 3.5 14.6 15.0 15.0 15.0 15.0 13.8 4.2 15.0 15.0 15.0 15.0 15.0
15.0 15.0 15.0 15.0 15.0 15.0 15.0 15.0 15.0 15.0 15.0 15.0 15.0 15.0 15.0 15.0 15.0 15.0 15.0 9.9 15.0 15.0 15.0 15.0 15.0 15.0 15.0 15.0 15.0 15.0 15.0 14.9 9.5 14.9 15.0 8.6 5.7 5.5 15.0 15.0 15.0 15.0 15.0 15.0
15.0 15.0 15.0 15.0 15.0 15.0 15.0 15.0 15.0 15.0 15.0 15.0 15.0 15.0 15.0 15.0 15.0 15.0 15.0 15.0 15.0 15.0 15.0 15.0 15.0 15.0 12.5 14.2 0.9 13.9 15.0 15.0 15.0 8.1 3.2 2.4 5.2 14.4 11.0 10.7 15.0 15.0 15.0 15.0
15.0 8.2 5.0 15.0 15.0 13.5 4.6 15.0 15.0 15.0 15.0 15.0 15.0 15.0 15.0 15.0 15.0 15.0 15.0 15.0 15.0 15.0 15.0 15.0 15.0 15.0 5.9 15.0 15.0 14.1 15.0 4.2 0.7 2.1 7.7 14.2 2.2 3.2 4.4 11.4 15.0 15.0 15.0 15.0
1.9 1.6 3.3 3.2 3.7 5.5 15.0 15.0 15.0 9.2 5.7 5.3 15.0 15.0 15.0 15.0 13.9 15.0 15.0 15.0 15.0 15.0 15.0 15.0 11.8 5.8 9.9 1.0 2.5 0.6 0.4 0.6 2.4 12.7 13.1 12.1 15.0 15.0 15.0 14.3 14.7 15.0 12.6 6.3
15.0 13.5 15.0 15.0 15.0 9.9 7.3 7.7 1.3 9.7 12.5 6.9 12.6 15.0 15.0 15.0 13.5 12.2 13.5 11.3 15.0 13.1 15.0 15.0 15.0 15.0 15.0 8.5 4.5 9.0 13.9 13.1 15.0 15.0 15.0 15.0 15.0 15.0 15.0 15.0 15.0 15.0 15.0 15.0
15.0 10.4 11.4 4.6 4.4 1.2 1.3 0.6 0.2 0.1 1.3 2.0 2.0 15.0 15.0 15.0 11.8 3.6 2.0 6.0 12.9 15.0 15.0 15.0 15.0 15.0 15.0 15.0 15.0 15.0 15.0 15.0 15.0 15.0 15.0 15.0 8.9 5.7 2.8 2.0 1.9 2.5 2.9 2.0